period_start,C,m1,H,J0,J1,J2,J3,J4,J5,JA,JB,JC,JD,JJ,JK,JN,#
2014-02-11 00:00:43,0.78,7.34,1.00,-6.29,-2.46,1.32,6.84,31.50,1042.01,2147.97,1699.43,1937.30,2096.28,349.76,367.94,15.72,0000 0000 0000 0000 000000
2014-02-11 00:01:43,0.56,7.34,1.00,-6.21,-2.46,1.24,6.84,31.42,1042.01,2147.92,1699.02,1936.87,2095.75,349.40,367.77,15.72,0000 0000 0000 0000 000000
2014-02-11 00:02:43,0.63,7.34,1.00,-6.14,-2.45,1.26,6.98,31.54,1042.01,2147.96,1698.42,1936.33,2095.20,350.40,368.98,15.73,0000 0000 0000 0000 000000
2014-02-11 00:03:43,0.62,7.35,1.00,-6.06,-2.45,1.27,6.72,31.46,1042.01,2147.95,1697.76,1935.86,2094.58,349.18,367.68,15.74,0000 0000 0000 0000 000000
2014-02-11 00:04:44,0.73,7.35,1.00,-5.98,-2.45,1.34,7.01,31.88,1042.01,2147.95,1697.23,1935.33,2094.14,349.37,367.34,15.74,0000 0000 0000 0000 000000
2014-02-11 00:05:44,0.62,7.35,1.00,-5.91,-2.43,1.30,6.87,31.67,1042.01,2147.96,1696.57,1934.82,2093.53,350.46,368.48,15.75,0000 0000 0000 0000 000000
2014-02-11 00:06:44,0.70,7.36,1.00,-5.84,-2.43,1.34,6.79,31.50,1042.01,2147.93,1695.90,1934.28,2092.94,349.33,366.98,15.75,0000 0000 0000 0000 000000
2014-02-11 00:07:44,0.74,7.36,1.00,-5.76,-2.43,1.33,6.79,31.75,1042.01,2147.88,1695.26,1933.68,2092.34,350.29,368.10,15.76,0000 0000 0000 0000 000000
2014-02-11 00:08:44,0.71,7.37,1.00,-5.69,-2.43,1.28,6.87,31.42,1042.01,2147.89,1694.54,1933.15,2091.74,349.37,367.03,15.77,0000 0000 0000 0000 000000
2014-02-11 00:09:45,0.78,7.37,1.00,-5.61,-2.43,1.24,6.63,31.29,1042.01,2147.91,1693.79,1932.49,2091.15,350.25,367.85,15.77,0000 0000 0000 0000 000000
2014-02-11 00:10:45,0.79,7.38,1.00,-5.54,-2.42,1.17,6.76,31.50,1042.01,2147.86,1692.95,1931.86,2090.45,350.20,367.70,15.78,0000 0000 0000 0000 000000
2014-02-11 00:11:45,0.83,7.38,1.00,-5.48,-2.41,1.10,6.98,31.71,1042.01,2147.82,1692.21,1931.27,2089.76,350.14,367.55,15.78,0000 0000 0000 0000 000000
2014-02-11 00:12:45,0.83,7.39,1.00,-5.40,-2.41,0.96,6.81,31.42,1042.01,2147.66,1691.44,1930.59,2089.16,350.09,367.82,15.79,0000 0000 0000 0000 000000
2014-02-11 00:13:46,0.61,7.39,1.00,-5.32,-2.41,0.81,6.99,31.38,1042.01,2147.54,1690.67,1930.09,2088.48,351.39,368.21,15.79,0000 0000 0000 0000 000000
2014-02-11 00:14:46,0.69,7.39,1.00,-5.25,-2.40,0.78,6.70,31.50,1042.01,2147.48,1690.08,1929.47,2087.88,349.39,366.45,15.80,0000 0000 0000 0000 000000
2014-02-11 00:15:46,0.67,7.40,1.00,-5.18,-2.38,0.72,6.68,31.38,1042.01,2147.33,1689.34,1928.94,2087.26,349.59,366.57,15.81,0000 0000 0000 0000 000000
2014-02-11 00:16:46,0.67,7.40,1.00,-5.12,-2.38,0.77,6.78,31.42,1042.03,2147.24,1688.52,1928.32,2086.54,349.98,366.72,15.81,0000 0000 0000 0000 000000
2014-02-11 00:17:46,0.71,7.40,1.00,-5.06,-2.37,0.81,6.81,31.38,1042.04,2147.23,1687.65,1927.64,2085.84,350.51,367.37,15.82,0000 0000 0000 0000 000000
2014-02-11 00:18:46,0.89,7.41,1.00,-4.99,-2.36,0.81,6.87,31.54,1042.02,2147.22,1686.81,1927.04,2085.21,349.57,366.28,15.82,0000 0000 0000 0000 000000
2014-02-11 00:19:47,0.90,7.42,1.00,-4.92,-2.36,0.83,6.73,31.33,1042.02,2147.17,1686.02,1926.38,2084.51,350.16,366.80,15.83,0000 0000 0000 0000 000000
2014-02-11 00:20:47,0.81,7.42,1.00,-4.85,-2.34,0.85,6.92,31.58,1042.01,2147.09,1685.18,1925.64,2083.78,350.47,367.03,15.84,0000 0000 0000 0000 000000
2014-02-11 00:21:47,0.88,7.43,1.00,-4.78,-2.33,0.86,6.96,31.46,1042.01,2147.08,1684.32,1925.07,2083.13,350.57,367.19,15.84,0000 0000 0000 0000 000000
2014-02-11 00:22:47,0.90,7.43,1.00,-4.71,-2.32,0.86,6.74,31.42,1042.01,2147.04,1683.49,1924.41,2082.42,350.32,366.67,15.85,0000 0000 0000 0000 000000
2014-02-11 00:23:48,0.77,7.43,1.00,-4.64,-2.31,0.87,6.75,31.25,1042.01,2147.03,1682.67,1923.79,2081.72,349.90,366.27,15.85,0000 0000 0000 0000 000000
2014-02-11 00:24:48,0.87,7.44,1.00,-4.58,-2.30,0.90,6.70,31.42,1042.02,2147.03,1681.97,1923.20,2081.12,349.81,366.31,15.86,0000 0000 0000 0000 000000
2014-02-11 00:25:48,0.84,7.45,1.00,-4.52,-2.28,0.91,6.76,31.50,1042.02,2147.02,1681.27,1922.51,2080.42,349.32,365.65,15.87,0000 0000 0000 0000 000000
2014-02-11 00:26:49,0.79,7.45,1.00,-4.47,-2.27,0.92,6.88,31.67,1042.05,2147.01,1680.48,1921.91,2079.72,350.25,366.50,15.87,0000 0000 0000 0000 000000
2014-02-11 00:27:49,0.86,7.45,1.00,-4.40,-2.26,0.95,6.78,31.21,1042.09,2147.00,1679.64,1921.32,2079.14,349.94,365.89,15.88,0000 0000 0000 0000 000000
2014-02-11 00:28:49,0.81,7.46,1.00,-4.33,-2.24,0.96,6.71,31.50,1042.14,2147.00,1678.87,1920.68,2078.45,349.53,365.28,15.88,0000 0000 0000 0000 000000
2014-02-11 00:29:49,0.86,7.46,1.00,-4.26,-2.23,0.97,6.68,31.54,1042.15,2147.00,1678.14,1920.19,2077.74,350.23,365.64,15.89,0000 0000 0000 0000 000000
2014-02-11 00:30:49,0.82,7.47,1.00,-4.19,-2.23,0.97,6.85,31.50,1042.13,2147.00,1677.37,1919.55,2077.02,349.82,365.49,15.89,0000 0000 0000 0000 000000
2014-02-11 00:31:50,0.86,7.47,1.00,-4.11,-2.21,0.99,6.91,31.50,1042.14,2147.00,1676.49,1918.88,2076.31,350.38,365.98,15.90,0000 0000 0000 0000 000000
2014-02-11 00:32:50,0.95,7.48,1.00,-4.04,-2.19,1.01,6.73,31.50,1042.07,2147.00,1675.63,1918.27,2075.57,349.55,364.98,15.91,0000 0000 0000 0000 000000
2014-02-11 00:33:50,0.85,7.48,1.00,-3.96,-2.17,1.03,6.78,31.33,1042.03,2147.00,1675.20,1917.70,2075.13,349.81,365.13,15.91,0000 0000 0000 0000 000000
2014-02-11 00:34:50,0.64,7.49,1.00,-3.88,-2.16,1.06,7.01,31.46,1042.04,2147.00,1674.45,1917.03,2074.43,349.49,364.66,15.92,0000 0000 0000 0000 000000
2014-02-11 00:35:51,0.89,7.49,1.00,-3.81,-2.14,1.09,6.98,31.54,1042.03,2146.99,1673.84,1916.39,2073.77,350.95,366.12,15.92,0000 0000 0000 0000 000000
2014-02-11 00:36:51,0.78,7.50,1.00,-3.73,-2.12,1.12,6.83,31.42,1042.04,2146.98,1672.93,1915.84,2073.01,350.75,365.82,15.93,0000 0000 0000 0000 000000
2014-02-11 00:37:51,0.96,7.50,1.00,-3.66,-2.10,1.14,6.80,31.25,1042.08,2146.96,1671.49,1914.89,2072.01,350.08,365.03,15.94,0000 0000 0000 0000 000000
2014-02-11 00:38:51,1.28,7.51,1.00,-3.57,-2.08,1.18,6.94,31.50,1042.10,2146.93,1670.37,1914.08,2071.11,350.42,365.28,15.94,0000 0000 0000 0000 000000
2014-02-11 00:39:52,1.21,7.52,1.00,-3.49,-2.06,1.22,6.95,31.63,1042.19,2146.88,1669.28,1913.21,2070.24,350.55,365.41,15.95,0000 0000 0000 0000 000000
2014-02-11 00:40:52,1.15,7.53,1.00,-3.44,-2.04,1.25,6.96,31.54,1042.24,2146.86,1668.40,1912.47,2069.46,350.86,365.78,15.95,0000 0000 0000 0000 000000
2014-02-11 00:41:52,0.85,7.53,1.00,-3.38,-2.02,1.29,6.77,31.38,1042.32,2146.74,1667.51,1911.79,2068.72,350.68,365.35,15.96,0000 0000 0000 0000 000000
2014-02-11 00:42:53,0.84,7.54,1.00,-3.34,-2.00,1.31,6.74,31.42,1042.36,2146.65,1666.63,1911.18,2068.02,349.89,364.88,15.96,0000 0000 0000 0000 000000
2014-02-11 00:43:53,0.83,7.54,1.00,-3.30,-1.98,1.36,6.62,31.29,1042.47,2146.49,1666.18,1910.53,2067.39,350.06,364.65,15.97,0000 0000 0000 0000 000000
2014-02-11 00:44:53,0.52,7.54,1.00,-3.25,-1.96,1.41,6.68,31.17,1042.49,2146.35,1665.50,1910.05,2066.69,349.71,364.20,15.98,0000 0000 0000 0000 000000
2014-02-11 00:45:54,0.60,7.55,1.00,-3.21,-1.94,1.45,6.81,31.38,1042.50,2146.19,1664.65,1909.36,2066.06,350.65,364.69,15.98,0000 0000 0000 0000 000000
2014-02-11 00:46:54,0.74,7.55,1.00,-3.16,-1.92,1.49,6.57,31.08,1042.50,2146.12,1663.64,1908.47,2065.21,350.01,364.42,15.99,0000 0000 0000 0000 000000
2014-02-11 00:47:54,1.19,7.56,1.00,-3.11,-1.89,1.51,6.55,31.13,1042.50,2146.05,1662.29,1907.44,2064.03,349.39,363.99,15.99,0000 0000 0000 0000 000000
2014-02-11 00:48:55,1.37,7.57,1.00,-3.06,-1.87,1.56,6.84,31.42,1042.50,2146.01,1661.28,1906.56,2063.17,350.64,364.95,16.00,0000 0000 0000 0000 000000
2014-02-11 00:49:55,1.08,7.57,1.00,-3.01,-1.85,1.59,6.79,31.04,1042.50,2146.00,1660.46,1905.85,2062.39,350.79,365.01,16.01,0000 0000 0000 0000 000000
2014-02-11 00:50:55,0.93,7.58,1.00,-2.96,-1.83,1.62,6.63,31.29,1042.51,2146.00,1659.66,1905.21,2061.62,349.89,364.04,16.01,0000 0000 0000 0000 000000
2014-02-11 00:51:55,0.91,7.58,1.00,-2.91,-1.80,1.64,6.66,31.25,1042.50,2145.99,1658.92,1904.51,2060.92,350.00,364.34,16.02,0000 0000 0000 0000 000000
2014-02-11 00:52:56,0.91,7.59,1.00,-2.85,-1.78,1.68,6.69,31.17,1042.52,2145.99,1658.30,1903.98,2060.28,349.56,363.72,16.02,0000 0000 0000 0000 000000
2014-02-11 00:53:56,0.69,7.59,1.00,-2.80,-1.75,1.71,6.60,31.13,1042.58,2145.96,1657.68,1903.39,2059.60,349.56,363.50,16.03,0000 0000 0000 0000 000000
2014-02-11 00:54:56,0.74,7.60,1.00,-2.76,-1.73,1.76,6.55,31.04,1042.58,2145.93,1657.14,1902.80,2059.08,348.98,362.85,16.04,0000 0000 0000 0000 000000
2014-02-11 00:55:56,0.72,7.60,1.00,-2.71,-1.70,1.79,6.77,31.21,1042.60,2145.84,1656.49,1902.27,2058.42,350.23,364.49,16.04,0000 0000 0000 0000 000000
2014-02-11 00:56:57,0.60,7.60,1.00,-2.65,-1.68,1.85,6.61,31.17,1042.55,2145.66,1655.86,1901.66,2057.78,349.44,363.17,16.05,0000 0000 0000 0000 000000
2014-02-11 00:57:57,0.65,7.61,1.00,-2.60,-1.65,1.89,6.44,31.08,1042.53,2145.36,1655.00,1901.09,2057.21,348.67,362.30,16.05,0000 0000 0000 0000 000000
2014-02-11 00:58:57,0.49,7.61,1.00,-2.55,-1.62,1.91,6.71,31.29,1042.58,2145.19,1654.39,1900.51,2056.59,350.04,363.67,16.06,0000 0000 0000 0000 000000
2014-02-11 00:59:57,0.54,7.61,1.00,-2.50,-1.60,1.94,6.68,31.25,1042.67,2145.07,1654.06,1900.10,2056.11,350.06,364.31,16.06,0000 0000 0000 0000 000000
2014-02-11 01:00:58,0.41,7.62,1.00,-2.44,-1.57,1.98,6.63,31.25,1042.70,2145.02,1653.47,1899.47,2055.45,349.80,363.32,16.07,0000 0000 0000 0000 000000
2014-02-11 01:01:58,0.68,7.62,1.00,-2.40,-1.54,2.00,6.63,31.13,1042.71,2145.01,1652.85,1898.97,2054.87,350.33,363.81,16.08,0000 0000 0000 0000 000000
2014-02-11 01:02:58,0.77,7.63,1.00,-2.35,-1.52,2.03,6.74,30.88,1042.61,2145.00,1652.14,1898.38,2054.21,350.30,363.51,16.08,0000 0000 0000 0000 000000
2014-02-11 01:03:58,0.79,7.63,1.00,-2.31,-1.49,2.09,6.68,31.25,1042.57,2145.00,1651.36,1897.73,2053.50,350.12,363.66,16.09,0000 0000 0000 0000 000000
2014-02-11 01:04:59,0.88,7.64,1.00,-2.27,-1.46,2.13,6.73,31.08,1042.57,2144.99,1650.58,1897.20,2052.88,350.12,363.36,16.09,0000 0000 0000 0000 000000
2014-02-11 01:05:59,0.78,7.64,1.00,-2.23,-1.43,2.16,6.60,30.75,1042.60,2144.95,1649.88,1896.54,2052.26,349.83,362.96,16.10,0000 0000 0000 0000 000000
2014-02-11 01:06:59,0.79,7.64,1.00,-2.18,-1.41,2.23,6.50,30.96,1042.62,2144.77,1649.20,1896.00,2051.58,349.12,362.22,16.11,0000 0000 0000 0000 000000
2014-02-11 01:07:59,0.64,7.65,1.00,-2.13,-1.38,2.27,6.91,31.21,1042.58,2144.54,1648.47,1895.39,2051.04,349.95,362.62,16.11,0000 0000 0000 0000 000000
2014-02-11 01:09:00,0.55,7.65,1.00,-2.09,-1.35,2.35,6.88,31.00,1042.55,2144.33,1647.74,1894.84,2050.40,350.74,363.77,16.12,0000 0000 0000 0000 000000
2014-02-11 01:10:00,0.59,7.66,1.00,-2.03,-1.32,2.35,6.67,31.29,1042.53,2144.16,1647.00,1894.25,2049.71,348.97,361.85,16.12,0000 0000 0000 0000 000000
2014-02-11 01:11:00,0.62,7.66,1.00,-1.99,-1.29,2.40,6.61,31.17,1042.54,2144.07,1646.19,1893.57,2049.09,350.63,363.52,16.13,0000 0000 0000 0000 000000
2014-02-11 01:12:00,0.83,7.66,1.00,-1.94,-1.26,2.43,6.66,31.08,1042.55,2144.03,1645.37,1892.86,2048.32,350.45,363.27,16.13,0000 0000 0000 0000 000000
2014-02-11 01:13:01,0.90,7.67,1.00,-1.89,-1.24,2.44,6.77,30.92,1042.54,2144.01,1644.44,1892.17,2047.56,350.38,363.12,16.14,0000 0000 0000 0000 000000
2014-02-11 01:14:01,1.01,7.68,1.00,-1.84,-1.21,2.47,6.80,31.08,1042.56,2144.00,1643.29,1891.33,2046.85,350.57,363.26,16.15,0000 0000 0000 0000 000000
2014-02-11 01:15:01,1.21,7.68,1.00,-1.79,-1.18,2.55,6.69,31.04,1042.59,2144.00,1642.20,1890.51,2046.01,350.39,363.02,16.15,0000 0000 0000 0000 000000
2014-02-11 01:16:01,1.16,7.69,1.00,-1.75,-1.15,2.59,6.57,31.04,1042.67,2144.00,1641.08,1889.71,2045.20,350.03,362.61,16.16,0000 0000 0000 0000 000000
2014-02-11 01:17:02,1.18,7.70,1.00,-1.70,-1.12,2.63,6.73,30.96,1042.60,2144.00,1640.01,1888.94,2044.34,349.81,361.93,16.16,0000 0000 0000 0000 000000
2014-02-11 01:18:02,1.16,7.70,1.00,-1.66,-1.09,2.65,6.79,30.92,1042.54,2143.99,1638.91,1888.18,2043.48,350.23,362.55,16.17,0000 0000 0000 0000 000000
2014-02-11 01:19:02,1.13,7.71,1.00,-1.62,-1.06,2.68,6.78,31.13,1042.56,2143.92,1637.87,1887.35,2042.63,350.45,362.65,16.18,0000 0000 0000 0000 000000
2014-02-11 01:20:02,1.08,7.72,1.00,-1.58,-1.03,2.73,6.52,31.04,1042.55,2143.72,1636.88,1886.56,2041.80,350.51,362.36,16.18,0000 0000 0000 0000 000000
2014-02-11 01:21:03,0.95,7.72,1.00,-1.53,-1.00,2.81,6.51,31.04,1042.56,2143.45,1636.26,1885.99,2041.21,349.90,362.15,16.19,0000 0000 0000 0000 000000
2014-02-11 01:22:03,0.29,7.72,1.00,-1.48,-0.97,2.84,6.79,31.00,1042.56,2143.24,1635.57,1885.31,2040.51,350.33,362.54,16.19,0000 0000 0000 0000 000000
2014-02-11 01:23:03,0.70,7.73,1.00,-1.44,-0.94,2.86,6.63,31.00,1042.61,2143.15,1634.77,1884.56,2039.76,349.88,362.53,16.20,0000 0000 0000 0000 000000
2014-02-11 01:24:03,0.92,7.73,1.00,-1.38,-0.91,2.93,6.69,30.79,1042.57,2143.06,1633.75,1883.70,2038.81,350.08,362.15,16.20,0000 0000 0000 0000 000000
2014-02-11 01:25:04,1.15,7.74,1.00,-1.34,-0.88,2.96,6.56,31.13,1042.54,2143.02,1632.97,1883.08,2038.09,349.73,361.89,16.21,0000 0000 0000 0000 000000
2014-02-11 01:26:04,0.85,7.74,1.00,-1.28,-0.85,3.02,6.57,30.79,1042.53,2143.00,1632.10,1882.39,2037.34,349.04,361.00,16.22,0000 0000 0000 0000 000000
2014-02-11 01:27:04,0.91,7.75,1.00,-1.23,-0.81,3.07,6.70,31.00,1042.62,2143.00,1631.22,1881.65,2036.57,350.34,362.17,16.22,0000 0000 0000 0000 000000
2014-02-11 01:28:04,1.08,7.76,1.00,-1.18,-0.78,3.15,6.83,30.92,1042.68,2142.99,1630.43,1881.04,2035.90,350.39,362.22,16.23,0000 0000 0000 0000 000000
2014-02-11 01:29:04,0.83,7.76,1.00,-1.14,-0.75,3.16,6.75,31.00,1042.75,2142.89,1629.68,1880.38,2035.19,349.50,361.29,16.23,0000 0000 0000 0000 000000
2014-02-11 01:30:04,0.77,7.77,1.00,-1.09,-0.72,3.24,6.66,31.29,1042.82,2142.57,1628.93,1879.67,2034.44,349.61,361.36,16.24,0000 0000 0000 0000 000000
2014-02-11 01:31:05,0.59,7.77,1.00,-1.05,-0.69,3.29,6.58,31.29,1042.77,2142.30,1628.11,1878.98,2033.67,351.10,362.82,16.25,0000 0000 0000 0000 000000
2014-02-11 01:32:05,0.73,7.77,1.00,-1.00,-0.66,3.30,6.73,30.96,1042.84,2142.15,1627.21,1878.26,2032.89,350.88,362.71,16.25,0000 0000 0000 0000 000000
2014-02-11 01:33:05,0.84,7.78,1.00,-0.95,-0.63,3.33,6.63,30.96,1042.90,2142.06,1626.20,1877.53,2032.14,349.55,361.28,16.26,0000 0000 0000 0000 000000
2014-02-11 01:34:05,1.01,7.78,1.00,-0.90,-0.60,3.35,6.69,31.29,1042.90,2142.02,1625.17,1876.78,2031.36,350.28,361.82,16.26,0000 0000 0000 0000 000000
2014-02-11 01:35:06,1.06,7.79,1.00,-0.85,-0.57,3.44,6.74,31.04,1042.94,2142.01,1624.29,1876.07,2030.56,349.87,361.35,16.27,0000 0000 0000 0000 000000
2014-02-11 01:36:06,0.94,7.80,1.00,-0.81,-0.53,3.49,6.56,31.13,1042.89,2142.00,1623.47,1875.40,2029.84,349.74,361.14,16.28,0000 0000 0000 0000 000000
2014-02-11 01:37:06,0.97,7.80,1.00,-0.76,-0.50,3.53,6.52,30.75,1042.88,2142.00,1622.66,1874.74,2029.15,349.28,360.60,16.28,0000 0000 0000 0000 000000
2014-02-11 01:38:06,0.95,7.81,1.00,-0.73,-0.47,3.54,6.63,30.83,1042.94,2141.99,1621.83,1874.12,2028.45,349.78,361.41,16.29,0000 0000 0000 0000 000000
2014-02-11 01:39:07,0.91,7.81,1.00,-0.68,-0.44,3.62,6.63,30.92,1042.96,2141.96,1621.11,1873.44,2027.76,350.55,361.83,16.29,0000 0000 0000 0000 000000
2014-02-11 01:40:07,0.88,7.82,1.00,-0.64,-0.41,3.67,6.61,31.00,1042.96,2141.90,1620.34,1872.78,2027.06,350.12,361.71,16.30,0000 0000 0000 0000 000000
2014-02-11 01:41:07,0.85,7.82,1.00,-0.60,-0.37,3.74,6.70,31.00,1042.96,2141.64,1619.56,1872.12,2026.31,349.96,361.34,16.30,0000 0000 0000 0000 000000
2014-02-11 01:42:07,0.57,7.83,1.00,-0.56,-0.34,3.81,6.52,30.79,1042.97,2141.31,1618.72,1871.41,2025.54,348.93,360.32,16.31,0000 0000 0000 0000 000000
2014-02-11 01:43:08,0.65,7.83,1.00,-0.51,-0.30,3.84,6.57,30.96,1042.96,2141.14,1617.85,1870.68,2024.76,350.08,361.12,16.32,0000 0000 0000 0000 000000
2014-02-11 01:44:08,0.89,7.84,1.00,-0.47,-0.27,3.88,6.55,30.71,1042.97,2141.05,1616.96,1870.04,2024.10,349.60,360.71,16.32,0000 0000 0000 0000 000000
2014-02-11 01:45:08,0.84,7.84,1.00,-0.42,-0.24,3.89,6.49,31.00,1042.98,2141.02,1616.16,1869.38,2023.38,349.72,360.80,16.33,0000 0000 0000 0000 000000
2014-02-11 01:46:08,0.89,7.85,1.00,-0.38,-0.20,3.92,6.77,30.79,1042.95,2141.00,1615.40,1868.70,2022.62,350.58,361.51,16.33,0000 0000 0000 0000 000000
2014-02-11 01:47:09,0.96,7.85,1.00,-0.33,-0.17,3.98,6.71,30.92,1042.96,2141.00,1614.64,1868.11,2021.93,350.53,361.16,16.34,0000 0000 0000 0000 000000
2014-02-11 01:48:09,0.87,7.86,1.00,-0.28,-0.14,4.01,6.78,30.75,1042.97,2140.97,1613.94,1867.45,2021.24,350.41,361.04,16.35,0000 0000 0000 0000 000000
2014-02-11 01:49:09,0.86,7.86,1.00,-0.23,-0.10,4.06,6.76,30.88,1042.94,2140.91,1613.11,1866.76,2020.51,350.11,360.97,16.35,0000 0000 0000 0000 000000
2014-02-11 01:50:09,0.93,7.87,1.00,-0.18,-0.07,4.09,6.77,30.92,1042.97,2140.71,1612.31,1866.11,2019.85,350.41,360.53,16.36,0000 0000 0000 0000 000000
2014-02-11 01:51:10,0.59,7.87,1.00,-0.14,-0.03,4.13,6.73,30.92,1042.97,2140.38,1611.47,1865.43,2019.12,350.85,361.42,16.36,0000 0000 0000 0000 000000
2014-02-11 01:52:10,0.63,7.87,1.00,-0.09,-0.00,4.18,6.58,30.92,1042.95,2140.15,1610.63,1864.73,2018.41,350.03,360.51,16.37,0000 0000 0000 0000 000000
2014-02-11 01:53:10,0.82,7.88,1.00,-0.05,0.02,4.23,6.56,30.58,1042.91,2140.08,1609.84,1864.08,2017.69,350.37,360.79,16.37,0000 0000 0000 0000 000000
2014-02-11 01:54:10,0.81,7.88,1.00,-0.01,0.06,4.29,6.46,30.83,1042.78,2140.04,1608.91,1863.36,2016.90,350.77,361.11,16.38,0000 0000 0000 0000 000000
2014-02-11 01:55:11,1.03,7.89,1.00,0.02,0.10,4.31,6.68,30.92,1042.72,2140.01,1607.94,1862.60,2016.20,350.46,360.72,16.39,0000 0000 0000 0000 000000
2014-02-11 01:56:11,1.07,7.90,1.00,0.06,0.13,4.36,6.61,30.75,1042.79,2140.00,1607.06,1861.94,2015.44,349.92,360.12,16.39,0000 0000 0000 0000 000000
2014-02-11 01:57:11,0.99,7.90,1.00,0.11,0.17,4.42,6.53,31.00,1042.84,2139.98,1606.20,1861.25,2014.62,349.36,359.27,16.40,0000 0000 0000 0000 000000
2014-02-11 01:58:11,0.96,7.91,1.00,0.14,0.20,4.46,6.60,30.88,1042.85,2139.89,1605.34,1860.51,2013.86,349.69,360.13,16.40,0000 0000 0000 0000 000000
2014-02-11 01:59:12,0.95,7.91,1.00,0.19,0.24,4.51,6.73,31.13,1042.91,2139.77,1604.48,1859.83,2013.14,350.08,360.55,16.41,0000 0000 0000 0000 000000
2014-02-11 02:00:12,0.87,7.92,1.00,0.24,0.28,4.57,6.67,30.83,1042.92,2139.47,1603.63,1859.19,2012.40,350.64,360.49,16.42,0000 0000 0000 0000 000000
2014-02-11 02:01:12,0.65,7.92,1.00,0.28,0.31,4.57,6.73,31.00,1042.94,2139.19,1602.74,1858.46,2011.61,350.83,360.79,16.42,0000 0000 0000 0000 000000
2014-02-11 02:02:12,0.81,7.93,1.00,0.32,0.34,4.61,6.58,30.67,1042.97,2139.08,1601.83,1857.68,2010.76,349.92,359.51,16.43,0000 0000 0000 0000 000000
2014-02-11 02:03:13,1.00,7.93,1.00,0.37,0.38,4.65,6.68,30.96,1042.98,2139.03,1600.85,1856.99,2009.99,349.85,359.72,16.43,0000 0000 0000 0000 000000
2014-02-11 02:04:13,0.97,7.94,1.00,0.41,0.42,4.70,6.57,30.92,1042.98,2139.01,1600.26,1856.36,2009.37,349.21,359.45,16.44,0000 0000 0000 0000 000000
2014-02-11 02:05:13,0.76,7.94,1.00,0.45,0.46,4.78,6.48,30.58,1042.98,2139.00,1599.61,1855.89,2008.75,349.32,359.44,16.45,0000 0000 0000 0000 000000
2014-02-11 02:06:14,0.71,7.95,1.00,0.49,0.49,4.81,6.73,30.83,1042.98,2138.97,1599.17,1855.34,2008.17,349.47,359.82,16.45,0000 0000 0000 0000 000000
2014-02-11 02:07:14,0.66,7.95,1.00,0.54,0.53,4.85,6.73,30.83,1042.98,2138.88,1598.53,1854.76,2007.50,349.59,359.22,16.46,0000 0000 0000 0000 000000
2014-02-11 02:08:14,0.72,7.95,1.00,0.59,0.57,4.88,6.47,30.83,1042.98,2138.67,1597.85,1854.22,2006.80,349.28,358.84,16.46,0000 0000 0000 0000 000000
2014-02-11 02:09:14,0.55,7.96,1.00,0.63,0.60,4.94,6.81,30.79,1042.98,2138.37,1597.20,1853.54,2006.19,349.88,359.39,16.47,0000 0000 0000 0000 000000
2014-02-11 02:10:15,0.49,7.96,1.00,0.68,0.64,5.00,6.57,31.00,1042.98,2138.17,1596.50,1853.02,2005.50,350.20,359.29,16.47,0000 0000 0000 0000 000000
2014-02-11 02:11:15,0.66,7.96,1.00,0.72,0.68,5.04,6.52,30.58,1042.97,2138.07,1595.85,1852.40,2004.89,349.36,358.75,16.48,0000 0000 0000 0000 000000
2014-02-11 02:12:15,0.74,7.97,1.00,0.77,0.71,5.08,6.72,30.96,1042.98,2138.02,1595.22,1851.78,2004.27,350.28,359.18,16.49,0000 0000 0000 0000 000000
2014-02-11 02:13:16,0.74,7.97,1.00,0.82,0.75,5.12,6.57,30.92,1042.98,2138.01,1594.45,1851.22,2003.57,349.67,358.94,16.49,0000 0000 0000 0000 000000
2014-02-11 02:14:16,0.88,7.98,1.00,0.86,0.79,5.15,6.59,30.83,1042.98,2137.99,1593.64,1850.55,2002.86,349.85,359.08,16.50,0000 0000 0000 0000 000000
2014-02-11 02:15:16,0.94,7.98,1.00,0.90,0.83,5.21,6.50,30.71,1042.98,2137.95,1593.19,1850.08,2002.29,349.84,359.07,16.50,0000 0000 0000 0000 000000
2014-02-11 02:16:16,0.58,7.99,1.00,0.94,0.87,5.25,6.64,30.75,1042.98,2137.80,1592.57,1849.44,2001.64,350.67,359.82,16.51,0000 0000 0000 0000 000000
2014-02-11 02:17:17,0.67,7.99,1.00,0.99,0.90,5.27,6.55,30.83,1042.98,2137.45,1592.01,1848.88,2001.08,350.43,359.50,16.52,0000 0000 0000 0000 000000
2014-02-11 02:18:17,0.30,7.99,1.00,1.03,0.94,5.32,6.44,30.63,1042.98,2137.23,1591.36,1848.32,2000.44,349.67,358.67,16.52,0000 0000 0000 0000 000000
2014-02-11 02:19:17,0.66,8.00,1.00,1.08,0.97,5.37,6.64,30.83,1042.98,2137.09,1590.64,1847.74,1999.90,349.80,358.38,16.53,0000 0000 0000 0000 000000
2014-02-11 02:20:17,0.63,8.00,1.00,1.12,1.01,5.43,6.57,30.54,1042.98,2137.03,1590.09,1847.20,1999.27,348.97,357.88,16.53,0000 0000 0000 0000 000000
2014-02-11 02:21:18,0.66,8.00,1.00,1.16,1.05,5.46,6.58,30.83,1042.98,2137.01,1589.39,1846.55,1998.55,349.78,358.61,16.54,0000 0000 0000 0000 000000
2014-02-11 02:22:18,0.91,8.01,1.00,1.20,1.09,5.48,6.70,30.71,1042.98,2137.00,1588.62,1845.98,1997.90,350.13,359.19,16.54,0000 0000 0000 0000 000000
2014-02-11 02:23:18,0.82,8.01,1.00,1.24,1.13,5.54,6.71,30.88,1042.98,2136.95,1588.02,1845.38,1997.30,350.15,358.82,16.55,0000 0000 0000 0000 000000
2014-02-11 02:24:19,0.75,8.02,1.00,1.29,1.16,5.59,6.70,30.75,1042.98,2136.78,1587.33,1844.85,1996.61,350.13,358.48,16.56,0000 0000 0000 0000 000000
2014-02-11 02:25:19,0.64,8.02,1.00,1.33,1.20,5.63,6.58,30.79,1042.98,2136.47,1586.60,1844.23,1995.95,350.02,358.87,16.56,0000 0000 0000 0000 000000
2014-02-11 02:26:19,0.54,8.03,1.00,1.37,1.24,5.66,6.77,30.83,1042.98,2136.18,1586.12,1843.56,1995.35,349.87,358.44,16.57,0000 0000 0000 0000 000000
2014-02-11 02:27:20,0.49,8.03,1.00,1.40,1.28,5.71,6.57,30.58,1042.98,2136.06,1585.42,1843.02,1994.73,349.62,358.36,16.57,0000 0000 0000 0000 000000
2014-02-11 02:28:20,0.67,8.03,1.00,1.45,1.32,5.75,6.67,30.63,1042.98,2136.02,1584.64,1842.42,1994.06,351.08,359.57,16.58,0000 0000 0000 0000 000000
2014-02-11 02:29:20,0.88,8.04,1.00,1.49,1.36,5.78,6.54,30.75,1042.98,2136.00,1584.04,1841.77,1993.43,349.76,357.60,16.59,0000 0000 0000 0000 000000
2014-02-11 02:30:20,0.82,8.04,1.00,1.53,1.40,5.83,6.53,30.79,1042.98,2135.99,1583.36,1841.23,1992.79,349.40,357.74,16.59,0000 0000 0000 0000 000000
2014-02-11 02:31:21,0.79,8.05,1.00,1.58,1.44,5.86,6.61,31.00,1042.98,2135.84,1582.61,1840.56,1992.14,350.56,358.86,16.60,0000 0000 0000 0000 000000
2014-02-11 02:32:21,0.77,8.05,1.00,1.62,1.48,5.91,6.68,31.04,1042.98,2135.58,1581.87,1839.95,1991.44,349.88,358.12,16.60,0000 0000 0000 0000 000000
2014-02-11 02:33:21,0.58,8.06,1.00,1.66,1.51,5.94,6.47,30.83,1042.98,2135.29,1581.15,1839.32,1990.71,348.91,357.07,16.61,0000 0000 0000 0000 000000
2014-02-11 02:34:22,0.59,8.06,1.00,1.69,1.55,5.98,6.56,30.75,1042.98,2135.13,1580.44,1838.61,1990.13,350.00,358.14,16.62,0000 0000 0000 0000 000000
2014-02-11 02:35:22,0.74,8.06,1.00,1.74,1.59,6.01,6.58,30.50,1042.98,2135.05,1579.75,1838.12,1989.46,350.41,358.27,16.62,0000 0000 0000 0000 000000
2014-02-11 02:36:22,0.73,8.07,1.00,1.78,1.63,6.06,6.45,30.71,1042.99,2135.01,1579.06,1837.51,1988.79,349.59,357.62,16.63,0000 0000 0000 0000 000000
2014-02-11 02:37:22,0.83,8.07,1.00,1.82,1.67,6.09,6.54,30.63,1042.99,2135.00,1578.32,1836.86,1988.14,350.19,358.21,16.63,0000 0000 0000 0000 000000
2014-02-11 02:38:23,0.92,8.08,1.00,1.86,1.71,6.12,6.72,30.75,1043.08,2134.95,1577.50,1836.26,1987.44,350.26,358.21,16.64,0000 0000 0000 0000 000000